星链-1693 (STARLINK-1693 )

导读

STARLINK-1693是美国太空探索技术公司星链互联网卫星星座的一员,于2020年10月6日发射入轨。星链项目旨在构建全球卫星互联网覆盖网络,这颗卫星承担低轨通信服务相关任务,运行在近地轨道,为全球范围内提供宽带互联网接入服务,推进星链星座的全球覆盖部署进程。

基本信息
目录编号:
46543
目录名称:
STARLINK-1693
国际标识:
2020-070M
轨道中心:
EARTH
卫星名称:
星链-1693
卫星全名:
星链-1693 (STARLINK-1693 )
卫星状态:
已陨落 最后检测时间 2025-08-16
发射日期:
2020-10-06 UTC
国别 :
美国 (US)
星等 :
--
轨道信息
数据来源 国际轨道数据
星历时间: 2025-08-16T15:43:34+0800
轨道信息已过期306天
半长轴: 6529.568km
偏心率: 0.0006112
轨道倾角: 53.017°
近地点辐角 309.376°
升交点赤经 288.504°
平近点角 100.523°
近地点: 147.442km
远地点: 155.424km
周期: 87.516分钟
每日圈数: 16.454176
详细信息
固有亮度:
5
最大亮度:
2.5
卫星平台:
Starlink V1.0
覆盖范围:
全球
运营商:
太空探索技术公司
运营商所在国:
美国
制造商(研发单位):
太空探索技术公司
制造商所在国:
美国
使用方式:
暂无
卫星简介
星链(Starlink)计划是由太空探索技术公司(SpaceX)提出的一个巨型低轨卫星互联网星座项目,计划在2019年至2024年间在太空搭建由约1.2万颗卫星组成的“星链”网络,其中1584颗将部署在地球上空550千米处的近地轨道,并从2020年开始工作。该卫星仍在工作。